Home   Weather   Koudougou   Past weeks

Flag for Burkina Faso Past Weather in Koudougou, Burkina Faso — Yesterday and Last 2 Weeks

Now
93 °F

Duststorm.


Feels Like: 89 °F
Forecast: N/A
Wind: 7 mph from Northeast

Location: Ouagadougou Airport

Current Time: Feb 26, 2017 at 7:12:16 pm

Latest Report: Feb 26, 2017 at 6:00 pm


Visibility: 2 mi

Pressure: 29.77 "Hg

Humidity: 11%

Dew Point: 30 °F

Location of KoudougouLocation

Past Weather in Koudougou — Graph

°F

Koudougou Temperature Yesterday

Maximum temperature yesterday: 100 °F (at 2:00 pm)
Minimum temperature yesterday: 75 °F (at 5:00 am)
Average temperature yesterday: 88 °F

High & Low Weather Summary for the Past Weeks

 TemperatureHumidityPressure
High102 °F (Feb 24, 1:00 pm)35% (Feb 12, 7:00 am)30.07 "Hg (Feb 12, 7:00 am)
Low64 °F (Feb 19, 5:00 am)5% (Feb 15, 3:00 pm)29.77 "Hg (Feb 11, 5:00 pm)
Average84 °F15%29.91 "Hg
* Reported Feb 11 5:00 pm — Feb 26 5:00 pm, Koudougou, Weather by CustomWeather, © 2017

Note: Actual official high and low records may vary slightly from our data, if they occured in-between our weather recording intervals... More about our weather records

Advertising

Koudougou Weather History for the Previous 24 Hours

Scroll right to see more
 ConditionsComfort  
Time TempWeatherWind HumidityBarometerVisibility
5:00 pm
Sun, Feb 26
99 °FDuststorm.7 mph9%29.77 "Hg3 mi
4:00 pm102 °FDuststorm.9 mph8%29.77 "Hg3 mi
3:00 pm102 °FDuststorm.5 mph8%29.80 "Hg3 mi
2:00 pm102 °FDuststorm.8 mph9%29.83 "Hg3 mi
1:00 pm99 °FDuststorm.8 mph9%29.86 "Hg3 mi
12:00 pm97 °FDuststorm.14 mph9%29.89 "Hg3 mi
11:00 am95 °FDuststorm.15 mph10%29.92 "Hg2 mi
10:00 am91 °FDuststorm.13 mph12%29.95 "Hg2 mi
9:00 am88 °FDuststorm.12 mph13%29.92 "Hg2 mi
8:00 am81 °FDuststorm.3 mph20%29.92 "Hg2 mi
7:00 am75 °FDuststorm.5 mph24%29.89 "Hg2 mi
6:00 am73 °FClear.5 mph29%29.89 "Hg5 mi
5:00 am75 °FClear.3 mph25%29.86 "Hg5 mi
4:00 am75 °FClear.3 mph25%29.86 "Hg10 mi
3:00 am77 °FClear.3 mph26%29.86 "Hg5 mi
2:00 am79 °FClear.5 mph26%29.86 "Hg5 mi
1:00 am79 °FClear.3 mph26%29.89 "Hg4 mi
11:00 pm
Sat, Feb 25
82 °FDuststorm.3 mph19%29.89 "Hg3 mi
10:00 pm86 °FDuststorm.3 mph18%29.89 "Hg2 mi
9:00 pm84 °FDuststorm.2 mph20%29.89 "Hg2 mi
8:00 pm88 °FDuststorm.5 mph17%29.86 "Hg2 mi
7:00 pm91 °FDuststorm.3 mph13%29.86 "Hg2 mi
Weather by CustomWeather, © 2017

See weather overviewHow to use our weather pages